星链-2483 (STARLINK-2483 )

导读 | 星芒AI

STARLINK-2483 是 SpaceX 星链计划中的一颗低轨通信卫星,属于第24批发射的星链卫星群。该卫星旨在为全球用户提供高速互联网服务,尤其关注网络覆盖不足的地区。它运行在约550公里高的近地轨道,具备先进的通信技术和自动避撞功能,以确保运行安全。作为星链星座的一部分,STARLINK-2483 有助于提升全球互联网接入的普及率和稳定性。

基本信息
目录编号:
48140
目录名称:
STARLINK-2483
国际标识:
2021-027BA
轨道中心:
EARTH
卫星名称:
星链-2483
卫星全名:
星链-2483 (STARLINK-2483 )
卫星状态:
在轨 (已飞行1667 天)
发射日期:
2021-04-07 UTC
国别 :
美国 (US)
星等 :
--
轨道信息
数据来源 国际轨道数据 AOE轨道数据
星历时间 2025-10-29T21:24:42+0800
23小时前
查看轨道信息
2025-10-26T08:00:00+0800
4天前
查看轨道信息
半长轴 6925.283km 6925.384km
偏心率 0.0001532 0.0000861
轨道倾角 53.055° 53.057°
近地点辐角 90.797° 113.978°
升交点赤经 40.836° 56.815°
平近点角 269.319° 15.803°
近地点 546.087km 546.652km
远地点 548.209km 547.846km
周期 95.591分钟 95.593分钟
每日圈数 15.064217 15.063886
详细信息
固有亮度:
5
最大亮度:
2.5
卫星平台:
Starlink V1.0
覆盖范围:
全球
运营商:
太空探索技术公司
运营商所在国:
美国
制造商(研发单位):
太空探索技术公司
制造商所在国:
美国
使用方式:
暂无
卫星简介
星链(Starlink)计划是由太空探索技术公司(SpaceX)提出的一个巨型低轨卫星互联网星座项目,计划在2019年至2024年间在太空搭建由约1.2万颗卫星组成的“星链”网络,其中1584颗将部署在地球上空550千米处的近地轨道,并从2020年开始工作。该卫星仍在工作。
2D轨道图
3D轨道图
轨道高度分析图
轨道倾角分析图
轨道综合分析图
查看轨道综合分析图